Regional Weather Roundup
Issued by NWS

Home | Current Version | Previous Version | Graphics & Text | Print | Product List | Glossary On
Versions: 1 2 3 4 5 6 7 8 9 10 11 12 13 14 15 16 17 18 19 20 21 22 23 24 25 26 27 28 29 30 31 32 33 34 35 36 37 38 39 40 41 42 43 44 45 46 47 48 49 50
000
ASUS43 KLMK 280502
RWRKY
KENTUCKY REGIONAL WEATHER ROUNDUP
NATIONAL WEATHER SERVICE LOUISVILLE KY
100 AM EDT FRI APR 28 2017

NOTE "FAIR" INDICATES FEW OR NO CLOUDS BELOW 12,000 FEET
WITH NO SIGNIFICANT WEATHER AND/OR OBSTRUCTIONS TO VISIBILITY.

KYZ001>023-026-027-061>063-070>075-280600-
WESTERN AND SOUTH CENTRAL KENTUCKY

CITY           SKY/WX    TMP DP  RH WIND       PRES   REMARKS
PADUCAH        CLEAR     51  48  89 CALM      29.87S
HENDERSON      CLOUDY    49  48  97 CALM      29.92R
OWENSBORO      MOCLDY    51  48  89 CALM      29.93R
HOPKINSVILLE   CLOUDY    53  52  98 N3        29.89R
BOWLING GREEN  CLEAR     50  49  96 CALM      29.91R
GLASGOW        NOT AVBL
$$

KYZ024-025-028>034-038-045-046-053-280600-
NORTH CENTRAL KENTUCKY

CITY           SKY/WX    TMP DP  RH WIND       PRES   REMARKS
LOUISVILLE/SDF PTCLDY    55  49  80 CALM      29.91R
LOUISVILLE/LOU CLEAR     52  49  89 CALM      29.92R
FORT KNOX      CLEAR     47  47  99 CALM      29.89S
$$

KYZ035>037-039>044-047>052-055>060-089>105-280600-
NORTHEAST KENTUCKY

CITY           SKY/WX    TMP DP  RH WIND       PRES   REMARKS
LEXINGTON      CLEAR     48  44  86 CALM      29.93R
COVINGTON      PTCLDY    50  46  86 W6        29.90R
FRANKFORT      CLEAR     49  44  83 CALM      29.91R
$$

KYZ054-064>069-076>088-106>120-280600-
SOUTHEAST KENTUCKY

CITY           SKY/WX    TMP DP  RH WIND       PRES   REMARKS
JACKSON        PTCLDY    59  50  72 CALM      29.93R
LONDON         CLEAR     55  52  89 CALM      29.93R
SOMERSET       NOT AVBL
MIDDLESBORO    CLEAR     53  53 100 CALM      29.94R
MONTICELLO     CLEAR     49  48  97 VRB7      29.95R
$$




USA.gov is the U.S. government's official web portal to all federal, state and local government web resources and services.